Погода в Буштени

Румыния     45°24′31″N   25°32′06″E
темп.,
°C
ветер,
м/с
пор.,
м/с
влажн.,
%
обл.,
%
осадки,
мм/ч
давл.,
гПа
погр.,
м
22 мая, вс
вс2200:00+11ссз269596 0.1 1015207
03:00+9ссз139454 0.3 101473
06:00+9ссз1293100 0.1 101329
09:00+12ссз3673100 0.1 1012828
12:00+14ссз6755100 0.0 10111494
15:00+15ссз675015 0.0 10101586
18:00+12ссз676590 0.0 10111132
21:00+8с249047 0.1 1012186
23 мая, пн
пн2300:00+6ссз248862 0.0 1013119
03:00+6юз2281100 0.1 101234
06:00+7ссз2383100 0.1 1012284
09:00+6з019399 0.6 1013180
12:00+8зсз13775 0.1 1013484
15:00+13ссз564839 0.2 10101880
18:00+13ссз455112 0.0 10101226
21:00+7в008657 0.0 101211
24 мая, вт
вт2400:00+8ю118189 0.0 101324
03:00+7ю239469 0.0 1013103
06:00+5ю339715 0.0 101470
09:00+12ююз226718 0.0 1012790
12:00+17ю124547 0.1 10121695
15:00+16юз2351100 0.1 10121765
18:00+14юз2365100 0.0 1012749
21:00+11ю3582100 0.0 1014188
25 мая, ср
ср2500:00+10ю468099 0.0 1015274
03:00+9ю4692100 0.0 1015148
06:00+8ю349299 0.0 101579
09:00+16ю116386 0.0 1014357
12:00+19ссз136129 0.4 10141227
15:00+21з14507 1.3 10141525
18:00+19юз236830 1.1 1015887
21:00+13ю33916 1.6 101644
26 мая, чт
чт2600:00+12ююз449030 0.1 101756
03:00+12ююз34887 0.1 101746
06:00+12ююз2290100 0.5 101738
09:00+19зсз275893 0.5 10161350
12:00+21сз6144456 0.1 10162381
15:00+21ссз6105113 0.1 10171625
18:00+17ссз587224 0.6 1017915
21:00+12с23968 0.8 101979